Weather in Bolshiye Lyotsy

Belarus     55°11′48″N   29°58′05″E
temp.,
°C
wind,
m/s
gust,
m/s
humid.,
%
clouds,
%
prec.,
mm/h
press.,
hPa
HPBL,
m
14 april, wed
wed1400:00+10s3698100 0.1 1017244
03:00+9w3698100 1.6 1016290
06:00+9nnw1197100 1.8 101656
09:00+8n2294100 2.0 1017141
12:00+8ne3594100 0.5 1018234
15:00+7ne479387 0.8 1018251
18:00+8nne4787100 0.1 1018307
21:00+5nne51094100 0.1 1019268
15 april, thu
thu1500:00+5ne51096100 0.0 1019307
03:00+5nne51194100 0.1 1018376
06:00+5nne71395100 2.0 1018348
09:00+6ne61294100 2.4 1018434
12:00+6nne71292100 1.1 1018407
15:00+7nne61390100 1.5 1018610
18:00+8ne71491100 1.3 1017579
21:00+7ne81589100 1.8 1018599
16 april, fri
fri1600:00+7ne7148988 0.0 1018590
03:00+6ne8149091 0.0 1017541
06:00+6ne7149199 0.1 1018568
09:00+7ene61289100 0.3 1019679
12:00+8ene7108590 0.0 1019586
15:00+10ene6979100 0.0 1020784
18:00+10ne61279100 0.0 10191017
21:00+10ene51386100 0.9 1020669
17 april, sat
sat1700:00+10ene71380100 0.7 1021760
03:00+8ene61286100 0.8 1022496
06:00+8ene6128494 0.0 1023487
09:00+7ene51084100 0.0 1024524
12:00+8ene5882100 0.0 1025583
15:00+12ene5770100 0.0 10251004
18:00+12ene497299 0.0 1025732
21:00+11ene51171100 0.0 1025373
18 april, sun
sun1800:00+7ene411795 0.0 1026268
03:00+5ene51177100 0.0 1026227
06:00+5ene5117564 0.0 1027261
09:00+8e596568 0.0 1027437
12:00+12e57557 0.0 1027994
15:00+15ese565283 0.0 10261677
18:00+14ese576087 0.0 10261103
21:00+10se497585 0.0 1028404